This demonstration page uses our WeatherBlox Daily Observations layout. Learn more.

Left ArrowRight Arrow

Hourly Observations for June 14, 2022

Temp ( °F °C ) Dew Point ( °F °C ) Humidity (%) Winds ( mph kmh ) Pressure ( in mb ) Visibility ( mi km ) Precip ( " mm )
12:15 am 00:15 Clear 73 23 73 23 100 100 Calm 29.94 1014 10 16 0.00 0.00
12:35 am 00:35 Clear 73 23 73 23 100 100 Calm 29.94 1014 10 16 0.00 0.00
12:55 am 00:55 Clear 75 24 73 23 94 94 Calm 29.92 1013 10 16 0.00 0.00
1:15 am 01:15 Clear 75 24 73 23 94 94 Calm 29.91 1013 10 16 0.00 0.00
1:35 am 01:35 Partly Cloudy 73 23 73 23 100 100 Calm 29.91 1013 10 16 0.00 0.00
1:55 am 01:55 Partly Cloudy 73 23 73 23 100 100 Calm 29.90 1012 10 16 0.00 0.00
2:15 am 02:15 Mostly Cloudy 73 23 73 23 100 100 N 3 6 29.91 1013 10 16 0.00 0.00
2:35 am 02:35 Mostly Cloudy 73 23 73 23 100 100 Calm 29.90 1012 10 16 0.00 0.00
3:15 am 03:15 Clear 73 23 73 23 100 100 Calm 29.89 1012 10 16 0.00 0.00
3:35 am 03:35 Clear 73 23 72 22 94 94 Calm 29.87 1011 10 16 0.00 0.00
3:55 am 03:55 Clear 72 22 72 22 100 100 NNW 3 6 29.87 1011 10 16 0.00 0.00
4:15 am 04:15 Clear 72 22 72 22 100 100 Calm 29.88 1012 10 16 0.00 0.00
4:35 am 04:35 Mostly Cloudy 73 23 73 23 100 100 Calm 29.89 1012 10 16 0.00 0.00
4:55 am 04:55 Mostly Cloudy with Light Rain 73 23 73 23 100 100 Calm 29.88 1012 5 8 0.01 0.25
5:15 am 05:15 Partly Cloudy 73 23 73 23 100 100 Calm 29.89 1012 10 16 0.00 0.00
5:35 am 05:35 Clear with Nearby Thunderstorms 73 23 73 23 100 100 Calm 29.89 1012 10 16 0.00 0.00
5:55 am 05:55 Sunny 73 23 73 23 100 100 NE 3 6 29.89 1012 7 11 0.00 0.00
6:15 am 06:15 Sunny 73 23 73 23 100 100 Calm 29.89 1012 10 16 0.00 0.00
6:35 am 06:35 Sunny 73 23 73 23 100 100 E 7 11 29.86 1011 7 11 0.00 0.00
6:55 am 06:55 Sunny 73 23 73 23 100 100 Calm 29.86 1011 7 11 0.00 0.00
7:15 am 07:15 Sunny 73 23 73 23 100 100 Calm 29.86 1011 7 11 0.00 0.00
7:35 am 07:35 Sunny 73 23 73 23 100 100 N 8 13 29.90 1012 7 11 0.00 0.00
7:55 am 07:55 Partly Cloudy with Light Rain 73 23 73 23 100 100 NNE 5 7 29.90 1012 7 11 0.00 0.00
8:35 am 08:35 Mostly Cloudy 73 23 72 22 94 94 NE 5 7 29.93 1013 10 16 0.00 0.00
8:55 am 08:55 Cloudy 73 23 72 22 94 94 NE 5 7 29.93 1013 10 16 0.00 0.00
9:15 am 09:15 Mostly Cloudy 73 23 72 22 94 94 N 3 6 29.94 1014 10 16 0.00 0.00
9:35 am 09:35 Cloudy 73 23 73 23 100 100 Calm 29.94 1014 10 16 0.00 0.00
9:55 am 09:55 Cloudy 73 23 72 22 94 94 NNW 6 9 29.94 1014 10 16 0.00 0.00
10:15 am 10:15 Cloudy 75 24 72 22 89 89 NNW 8 13 29.94 1014 10 16 0.00 0.00
10:35 am 10:35 Mostly Cloudy with Light Rain 79 26 72 22 79 79 N 9 15 29.91 1013 10 16 0.00 0.00
10:55 am 10:55 Partly Cloudy 79 26 72 22 79 79 NNW 8 13 29.91 1013 10 16 0.00 0.00
11:15 am 11:15 Partly Cloudy 79 26 72 22 79 79 NNW 8 13 29.91 1013 10 16 0.00 0.00
11:35 am 11:35 Mostly Cloudy 79 26 72 22 79 79 NNW 13 20 29.92 1013 10 16 0.00 0.00
11:55 am 11:55 Cloudy 81 27 72 22 74 74 NW 14 22 29.92 1013 10 16 0.00 0.00
12:15 pm 12:15 Cloudy 79 26 72 22 79 79 NNW 14 22 29.92 1013 10 16 0.00 0.00
12:35 pm 12:35 Cloudy 79 26 72 22 79 79 N 10 17 29.92 1013 10 16 0.00 0.00
12:55 pm 12:55 Cloudy 79 26 72 22 79 79 N 12 19 29.93 1014 10 16 0.00 0.00
1:15 pm 13:15 Cloudy 79 26 72 22 79 79 N 7 11 29.94 1014 10 16 0.00 0.00
1:35 pm 13:35 Cloudy 79 26 72 22 79 79 NNE 9 15 29.94 1014 10 16 0.00 0.00
1:55 pm 13:55 Cloudy 79 26 72 22 79 79 N 7 11 29.94 1014 10 16 0.00 0.00
2:15 pm 14:15 Cloudy 79 26 72 22 79 79 N 7 11 29.93 1014 10 16 0.00 0.00
2:35 pm 14:35 Cloudy 77 25 72 22 83 83 N 9 15 29.93 1014 10 16 0.00 0.00
2:55 pm 14:55 Cloudy 79 26 72 22 79 79 NNW 7 11 29.93 1014 10 16 0.00 0.00
3:15 pm 15:15 Partly Cloudy 81 27 73 23 79 79 WNW 7 11 29.92 1013 10 16 0.00 0.00
3:35 pm 15:35 Mostly Cloudy 82 28 73 23 74 74 NNW 8 13 29.92 1013 10 16 0.00 0.00
3:55 pm 15:55 Cloudy 81 27 72 22 74 74 N 8 13 29.92 1013 10 16 0.00 0.00
4:15 pm 16:15 Cloudy 82 28 72 22 70 70 N 9 15 29.91 1013 10 16 0.00 0.00
4:35 pm 16:35 Cloudy 82 28 72 22 70 70 N 9 15 29.91 1013 10 16 0.00 0.00
4:55 pm 16:55 Cloudy 81 27 72 22 74 74 NNE 7 11 29.92 1013 10 16 0.00 0.00
5:15 pm 17:15 Mostly Cloudy 81 27 72 22 74 74 N 6 9 29.92 1013 10 16 0.00 0.00
5:35 pm 17:35 Mostly Cloudy 81 27 72 22 74 74 NE 8 13 29.92 1013 10 16 0.00 0.00
5:55 pm 17:55 Partly Cloudy 81 27 72 22 74 74 NE 6 9 29.91 1013 10 16 0.00 0.00
6:15 pm 18:15 Sunny 81 27 73 23 79 79 NE 5 7 29.92 1013 10 16 0.00 0.00
6:35 pm 18:35 Sunny 81 27 73 23 79 79 N 7 11 29.91 1013 10 16 0.00 0.00
6:55 pm 18:55 Sunny 81 27 73 23 79 79 NNE 6 9 29.91 1013 10 16 0.00 0.00
7:15 pm 19:15 Sunny 81 27 72 22 74 74 NNE 7 11 29.92 1013 10 16 0.00 0.00
7:35 pm 19:35 Sunny 81 27 72 22 74 74 N 8 13 29.92 1013 10 16 0.00 0.00
7:55 pm 19:55 Sunny 81 27 72 22 74 74 NNE 7 11 29.93 1014 10 16 0.00 0.00
8:15 pm 20:15 Sunny 79 26 72 22 79 79 NNE 6 9 29.93 1014 10 16 0.00 0.00
8:35 pm 20:35 Sunny 79 26 72 22 79 79 N 5 7 29.93 1014 10 16 0.00 0.00
8:55 pm 20:55 Clear 77 25 72 22 83 83 N 5 7 29.94 1014 10 16 0.00 0.00
9:15 pm 21:15 Clear 77 25 72 22 83 83 N 3 6 29.95 1014 10 16 0.00 0.00
9:35 pm 21:35 Clear 75 24 72 22 89 89 N 3 6 29.97 1015 10 16 0.00 0.00
9:55 pm 21:55 Clear 75 24 72 22 89 89 Calm 29.99 1015 10 16 0.00 0.00
10:15 pm 22:15 Clear 73 23 70 21 89 89 Calm 30.00 1016 10 16 0.00 0.00
10:35 pm 22:35 Clear 75 24 70 21 83 83 NE 3 6 30.00 1016 10 16 0.00 0.00
10:55 pm 22:55 Clear 73 23 70 21 89 89 Calm 30.01 1016 10 16 0.00 0.00
11:15 pm 23:15 Clear 70 21 70 21 100 100 Calm 30.01 1016 10 16 0.00 0.00
11:35 pm 23:35 Clear 72 22 70 21 94 94 Calm 30.01 1016 10 16 0.00 0.00
11:55 pm 23:55 Clear 72 22 70 21 94 94 Calm 30.01 1016 10 16 0.00 0.00

Powered by AerisWeather